OpenBCM V1.08-5-g2f4a (Linux)

Packet Radio Mailbox

IZ3LSV

[San Dona' di P. JN]

 Login: GUEST





  
I0OJJ  > KEPS     06.07.25 01:40l 342 Lines 16338 Bytes #19 (0) @ AMSAT
BID : ORB25187.1
Read: GUEST
Subj: 2Line Orbital Elements 25187.AMSAT
Path: IZ3LSV<IK6IHL<IK7NXU<HB9ON<HB9ON<PI8ZTM<PI8LAP<VE2PKT<PY2BIL<LU9DCE<
      EA2RCF<I0OJJ
Sent: 250706/0025z @:I0OJJ.ITA.EU [Rome] obcm1.08-10-g596e
From: I0OJJ @ I0OJJ.ITA.EU (Gustavo)
To:   KEPS @ AMSAT
X-Info: This message was generated automatically


QST de W1STR

AMSAT Orbital Elements for Amateur Satellites in TLE Format
From Orbital Analysis Office
New England Sci-Tech STEM Education Center
Natick, MA July 06, 2025
To all radio amateurs


These element sets describe the orbits of various satellites 
in use by the amateur radio community. For details see:
www.amsat.org/keplerian-elements-formats/

A daily update of element sets is available at:
www.amsat.org/tle/daily-bulletin.txt
or without bulletin text:
www.amsat.org/tle/dailytle.txt


AO-07
1 07530U 74089B   25186.59128744 -.00000036  00000-0  67286-4 0  9998
2 07530 101.9930 191.1322 0012627  73.2247  37.8694 12.53689944317326
UO-11
1 14781U 84021B   25186.46599151  .00001086  00000-0  11993-3 0  9999
2 14781  97.7555 152.3253 0006351 247.1485 112.9063 14.89447513205496
AO-27
1 22825U 93061C   25186.72146793  .00000070  00000-0  43910-4 0  9997
2 22825  98.7355 248.4059 0009086  42.7752 317.4136 14.30806574657720
FO-29
1 24278U 96046B   25186.62901772 -.00000049  00000-0 -10044-4 0  9992
2 24278  98.5727  77.0912 0348844 275.1413  81.0009 13.53250089426290
NOAA-15
1 25338U 98030A   25186.89524240  .00000170  00000-0  87696-4 0  9995
2 25338  98.5339 211.3917 0009007 283.9276  76.0903 14.26992334412158
GO-32
1 25397U 98043D   25186.54330669  .00000051  00000-0  42142-4 0  9991
2 25397  98.9713 166.2060 0002208 114.0610 246.0800 14.24320384401984
ISS
1 25544U 98067A   25186.82847031  .00007133  00000-0  13106-3 0  9993
2 25544  51.6342 214.6801 0002507 338.0294  22.0587 15.50389624518054
NO-44
1 26931U 01043C   25186.42263117  .00000100  00000-0  68430-4 0  9993
2 26931  67.0512  61.0236 0006189 276.8302  83.2096 14.31745013240805
SO-50
1 27607U 02058C   25186.26852236  .00001231  00000-0  16997-3 0  9995
2 27607  64.5526 121.2367 0059198 328.4004  31.3552 14.81687633213032
CO-55
1 27844U 03031E   25186.53704777  .00000258  00000-0  13152-3 0  9994
2 27844  98.6754 194.4752 0010840 109.8328 250.4020 14.24012878142335
CO-57
1 27848U 03031J   25186.49760050  .00000213  00000-0  11326-3 0  9991
2 27848  98.6782 194.4225 0010525 125.3916 234.8248 14.23345222142059
RS-22
1 27939U 03042A   25186.76532589  .00000811  00000-0  13637-3 0  9999
2 27939  98.3299 356.8523 0010177 289.2042 127.4493 14.72402792164680
CO-58
1 28895U 05043F   25186.36555376  .00001293  00000-0  21855-3 0  9995
2 28895  98.2529 331.0432 0013696 221.2725 138.7447 14.71081264 50734
CO-65
1 32785U 08021C   25186.54308442  .00004698  00000-0  33852-3 0  9999
2 32785  97.7847 157.9028 0010978 120.9115 239.3191 15.04623246932987
CO-66
1 32791U 08021J   25186.85640703  .00009405  00000-0  44975-3 0  9998
2 32791  97.7279 167.4937 0005756  84.5622 275.6269 15.19209178934569
RS-30
1 32953U 08025A   25186.71862016  .00000034  00000-0  17706-3 0  9991
2 32953  82.5010 210.9229 0018956 352.7888   7.2916 12.43165929776787
NOAA-19
1 33591U 09005A   25186.82144963  .00000132  00000-0  94454-4 0  9990
2 33591  98.9962 251.6721 0012678 291.1166  68.8650 14.13385395845811
SRMSAT
1 37841U 11058D   25186.76466501  .00000372  00000-0  58441-4 0  9993
2 37841  19.9737 356.0944 0011794 353.2150 120.7272 14.11442479709030
ZACUBE-1
1 39417U 13066B   25186.85910233  .00003207  00000-0  27982-3 0  9996
2 39417  97.7801 143.7378 0043228 326.1433  33.7029 14.96862146628841
Delfi-N3xt
1 39428U 13066N   25186.37412719  .00005104  00000-0  51943-3 0  9993
2 39428  97.8333 103.7407 0082611 275.8531  83.3274 14.88666163622918
GOMX-1
1 39430U 13066Q   25186.80222500  .00001678  00000-0  26505-3 0  9999
2 39430  97.6814  43.8545 0133744 108.2862 253.2949 14.67723910619251
LO-74
1 39440U 13066AA  25186.39818183  .00003573  00000-0  36189-3 0  9997
2 39440  97.8497 130.7822 0063562  94.7339 266.1141 14.90071471625284
AO-73
1 39444U 13066AE  25186.71980784  .00005917  00000-0  44086-3 0  9993
2 39444  97.7799 148.7379 0041054 299.0554  60.6560 15.02621132628104
DTUSAT-2
1 40030U 14033W   25186.89201923  .00004940  00000-0  32064-3 0  9999
2 40030  98.0554 159.9897 0008343 341.6584  18.4341 15.08540853600878
EO-80
1 40032U 14033Y   25186.57922026  .00004990  00000-0  32323-3 0  9993
2 40032  98.0443 159.2805 0006601 273.4364  86.6107 15.08621467600296
LILACSAT-2
1 40908U 15049K   25186.87443806  .00009830  00000-0  25280-3 0  9992
2 40908  97.5051 207.8624 0010826  72.1418 288.1007 15.39419228542279
IO-86
1 40931U 15052B   25151.18580175  .00001241  00000-0  78118-4 0  9996
2 40931   6.0006  24.0987 0012733 338.8432  21.1169 14.78805930523047
Horyu-4
1 41340U 16012D   25186.51177913  .00019278  00000-0  49855-3 0  9999
2 41340  30.9977 317.4225 0006414 337.1261  22.9098 15.37820706516787
Lapan A3
1 41603U 16040E   25186.85864279  .00002510  00000-0  88756-4 0  9992
2 41603  97.1369 190.4370 0011365 166.0646 194.0911 15.30006290501805
CAS-2T
1 41847U 16066G   25186.26018026  .00001515  00000-0  22177-3 0  9994
2 41847  98.4195 260.4974 0347075 100.8200 263.2251 14.43561563454722
CAS-4B
1 42759U 17034B   25186.82696980  .00063974  00000-0  59064-3 0  9998
2 42759  43.0041 165.0705 0019104 115.3883 244.8963 15.66470828446714
CAS-4A
1 42761U 17034D   25186.83714913  .00070207  00000-0  60838-3 0  9997
2 42761  43.0080 161.8557 0020191 120.7712 239.5145 15.67963447446749
TechnoSat
1 42829U 17042E   25186.82953210  .00002425  00000-0  18986-3 0  9999
2 42829  97.3848 354.2809 0016369 185.3784 174.7268 15.01813751434668
AO-91
1 43017U 17073E   25186.59162867  .00008816  00000-0  44587-3 0  9993
2 43017  97.5221  56.7044 0172932  78.1307 283.9254 15.05087785413129
S-Net D
1 43186U 18014G   25186.70709680  .00003315  00000-0  19656-3 0  9997
2 43186  97.5603  89.3478 0010428 128.3888 231.8281 15.12022834406324
S-Net B
1 43187U 18014H   25186.24958512  .00003816  00000-0  22575-3 0  9997
2 43187  97.5612  88.8680 0011212 126.0383 234.1888 15.12000810406252
S-Net A
1 43188U 18014J   25186.77357572  .00003353  00000-0  19870-3 0  9995
2 43188  97.5617  89.5403 0011075 125.1307 235.0963 15.12028298406335
S-Net C
1 43189U 18014K   25186.78149264  .00003376  00000-0  20010-3 0  9997
2 43189  97.5634  89.5666 0012749 119.2131 241.0376 15.11999578404884
Ten-Koh
1 43677U 18084G   25186.46771555  .00001927  00000-0  15737-3 0  9995
2 43677  98.0850 359.7483 0007834 165.0289 195.1166 15.00668609364127
PO-101
1 43678U 18084H   25186.83314774  .00001993  00000-0  17224-3 0  9999
2 43678  98.1037   3.9599 0008439 188.1357 171.9728 14.98419135364317
QO-100
1 43700U 18090A   25186.84840938  .00000161  00000-0  00000+0 0  9995
2 43700   0.0165  66.5625 0002478  70.3732 118.3522  1.00273419 24444
MinXSS-2
1 43758U 18099A   25186.49266860  .00013475  00000-0  51923-3 0  9990
2 43758  97.5010 252.6214 0012810  70.1331 290.1286 15.26385443360929
AO-95
1 43770U 18099N   25186.10281284  .00007998  00000-0  40037-3 0  9996
2 43770  97.4904 243.9101 0012130 120.8950 239.3478 15.17601912360422
RANGE-A
1 43773U 18099R   25186.59129085  .00003732  00000-0  23767-3 0  9995
2 43773  97.4473 234.2392 0013117 102.0341 258.2359 15.09283700360142
MOVE-II
1 43780U 18099Y   25186.78630263  .00905858  38658-3  19490-2 0  9999
2 43780  97.4619 264.8077 0009612 245.3994 114.6282 15.98477593361954
SNUSat 2
1 43782U 18099AA  25186.69954950  .00006564  00000-0  35497-3 0  9992
2 43782  97.4586 241.0379 0013339  68.0236 292.2412 15.14926462360455
SnugLite
1 43784U 18099AC  25186.65476614  .00007208  00000-0  35810-3 0  9991
2 43784  97.4399 240.6078 0004933  77.4724 282.7062 15.17950603360593
ITASat 1
1 43786U 18099AE  25186.73444816  .00004907  00000-0  27924-3 0  9991
2 43786  97.4555 240.5045 0015959 114.3717 245.9182 15.13197739360419
EAGLET 1
1 43790U 18099AJ  25186.74074646  .00003367  00000-0  21511-3 0  9992
2 43790  97.4755 240.3803 0013827  99.5902 260.6891 15.09234822360015
ESEO
1 43792U 18099AL  25186.57185400  .00000665  00000-0  54106-4 0  9991
2 43792  97.4454 233.1331 0014704  75.3378 284.9476 15.02689870359727
CSIM
1 43793U 18099AM  25186.76194454  .00288356  00000-0  13347-2 0  9997
2 43793  97.4769 266.8028 0002097 137.9312 222.2118 15.82719746361778
JO-97
1 43803U 18099AX  25186.63521915  .00009994  00000-0  44904-3 0  9994
2 43803  97.4652 245.4845 0008549  62.9089 297.3018 15.21313339360735
Suomi 100
1 43804U 18099AY  25186.69219897  .00008054  00000-0  38945-3 0  9998
2 43804  97.4719 244.7618 0013527  62.4314 297.8293 15.18794098360661
ISAT
1 43879U 18111D   25186.32320408  .00018145  00000-0  61251-3 0  9994
2 43879  97.5939 101.2973 0010765 104.9605 255.2828 15.30690580357635
UWE-4
1 43880U 18111E   25186.70030770  .00012342  00000-0  47415-3 0  9997
2 43880  97.5882  99.9762 0013719 115.2982 244.9679 15.26500474355610
Sparrow
1 43881U 18111F   25186.74121884  .00017018  00000-0  55240-3 0  9999
2 43881  97.6086 104.7058 0008408 134.0972 226.0963 15.31990898355793
Prox-1
1 44339U 19036A   25186.57263639  .00008350  00000-0  10355-2 0  9997
2 44339  23.9966 251.0025 0007447  15.1093 344.9626 14.80375918321877
SONATE
1 44400U 19038Q   25185.47540524  .09032085  27445-5  31847-3 0  9995
2 44400  97.6609 216.4776 0012462 246.7970 113.2018 16.43248376333575
Taurus 1
1 44530U 19059C   25186.86772231  .00004323  00000-0  79650-3 0  9990
2 44530  98.6089 327.5162 0007988 317.6504  42.4081 14.66085103307791
Duchifat 3
1 44854U 19089C   25186.36712416  .00041603  00000-0  76002-3 0  9996
2 44854  36.9408 190.9940 0004975 189.7728 170.2933 15.48420559307015
TO-108
1 44881U 19093C   25186.82766312  .00000687  00000-0  85352-4 0  9992
2 44881  97.7919 261.9286 0014738 140.9859 219.2422 14.85643772299977
